Weather History for Branson, MO

Change the Weather History Date:

Tuesday, February 18, 2014

  Actual Average (KHRO) Record (KHRO)
Temperature  
Mean Temperature 50 °F 41 °F  
Max Temperature 66 °F 51 °F 75 °F (1986)
Min Temperature 35 °F 31 °F -7 °F (1910)
Degree Days  
Heating Degree Days 14 24  
Month to date heating degree days 462  
Since 1 July heating degree days 2948  
Cooling Degree Days 0 0  
Month to date cooling degree days 0  
Year to date cooling degree days 0  
Moisture  
Dew Point 26 °F    
Average Humidity 40    
Maximum Humidity 56    
Minimum Humidity 24    
Precipitation  
Precipitation 0.00 in 0.09 in 1.48 in (1938)
Month to date precipitation 1.63  
Year to date precipitation 4.19  
Snow  
Snow 0.00 in 0.10 in 4.00 in (2006)
Month to date snowfall 2.2  
Since 1 July snowfall 8.2  
Snow Depth -    
Sea Level Pressure  
Sea Level Pressure 29.99 in    
Wind  
Wind Speed 5 mph (SSW)    
Max Wind Speed 16 mph    
Max Gust Speed 23 mph    
Visibility 10 miles    
Events      
T = Trace of Precipitation, MM = Missing Value Source: NWS Daily Summary

Daily Weather History Graph

Daily Weather History Graph

Search for Another Location

Airport:

Trip Planner

Search our weather history database for the weather conditions in past years. The results will help you decide how hot, cold, wet, or windy it might be!

Date:

Astronomy

Feb. 18, 2014 Rise Set
Actual Time 6:57 AM CST 5:56 PM CST
Civil Twilight 6:31 AM CST 6:22 PM CST
Nautical Twilight 6:00 AM CST 6:53 PM CST
Astronomical Twilight 5:30 AM CST 7:23 PM CST
Moon 9:42 PM CST (2/18) 8:36 AM CST (2/18)
Length of Visible Light 11h 51m
Length of Day
10h 59m
Waning Gibbous, 87% of the Moon is Illuminated
Feb 18
Waning Gibbous
Feb 22
Last Quarter
Mar 1
New
Mar 8
First Quarter
Mar 16
Full

Hourly Weather History & Observations

Time (CST) Temp. Windchill Dew Point Humidity Pressure Visibility Wind Dir Wind Speed Gust Speed Precip Events Conditions
12:15 AM 44.6 °F 42.2 °F 23.0 °F 43% 30.12 in 10.0 mi SSW 4.6 mph - N/A   Clear
12:35 AM 44.6 °F 42.2 °F 23.0 °F 43% 30.12 in 10.0 mi South 4.6 mph - N/A   Clear
12:55 AM 44.6 °F 42.2 °F 23.0 °F 43% 30.11 in 10.0 mi South 4.6 mph - N/A   Clear
1:15 AM 44.6 °F 43.1 °F 23.0 °F 43% 30.11 in 10.0 mi South 3.5 mph - N/A   Clear
1:35 AM 44.6 °F 43.1 °F 23.0 °F 43% 30.10 in 10.0 mi South 3.5 mph - N/A   Clear
1:55 AM 44.6 °F 43.1 °F 23.0 °F 43% 30.09 in 10.0 mi South 3.5 mph - N/A   Clear
2:15 AM 42.8 °F 41.1 °F 23.0 °F 46% 30.09 in 10.0 mi South 3.5 mph - N/A   Clear
2:35 AM 42.8 °F - 23.0 °F 46% 30.08 in 10.0 mi Calm Calm - N/A   Clear
2:55 AM 39.2 °F - 23.0 °F 52% 30.07 in 10.0 mi Calm Calm - N/A   Clear
3:15 AM 44.6 °F - 19.4 °F 37% 30.07 in 10.0 mi Calm Calm - N/A   Clear
3:35 AM 41.0 °F - 21.2 °F 45% 30.07 in 10.0 mi Calm Calm - N/A   Clear
3:55 AM 41.0 °F - 19.4 °F 42% 30.06 in 10.0 mi Calm Calm - N/A   Clear
4:15 AM 41.0 °F - 19.4 °F 42% 30.05 in 10.0 mi Calm Calm - N/A   Clear
4:35 AM 44.6 °F 42.2 °F 17.6 °F 34% 30.05 in 10.0 mi SW 4.6 mph - N/A   Clear
4:55 AM 37.4 °F - 21.2 °F 52% 30.04 in 10.0 mi Calm Calm - N/A   Clear
5:15 AM 44.6 °F - 17.6 °F 34% 30.04 in 10.0 mi Calm Calm - N/A   Clear
5:35 AM 37.4 °F - 21.2 °F 52% 30.04 in 10.0 mi Calm Calm - N/A   Clear
5:55 AM 35.6 °F 31.7 °F 21.2 °F 56% 30.03 in 10.0 mi SE 4.6 mph - N/A   Clear
6:15 AM 39.2 °F 34.2 °F 23.0 °F 52% 30.03 in 10.0 mi SSE 6.9 mph - N/A   Clear
6:35 AM 42.8 °F 37.5 °F 19.4 °F 39% 30.03 in 10.0 mi SSE 9.2 mph - N/A   Clear
6:45 AM 41.0 °F 35.2 °F 19.4 °F 42% 30.03 in 10.0 mi SSE 9.2 mph - N/A   Mostly Cloudy
7:45 AM 42.8 °F 38.0 °F 19.4 °F 39% 30.03 in 10.0 mi SSE 8.1 mph - N/A   Mostly Cloudy
8:45 AM 48.2 °F - 21.2 °F 34% 30.03 in 10.0 mi SSE 11.5 mph - N/A   Mostly Cloudy
9:45 AM 50.0 °F - 23.0 °F 35% 30.02 in 10.0 mi SSE 10.4 mph 18.4 mph N/A   Mostly Cloudy
10:46 AM 55.4 °F - 23.0 °F 29% 30.02 in 10.0 mi SSE 16.1 mph 23.0 mph N/A   Mostly Cloudy
11:45 AM 57.2 °F - 24.8 °F 29% 29.97 in 10.0 mi SSE 9.2 mph - N/A   Overcast
12:45 PM 62.6 °F - 24.8 °F 24% 29.92 in 10.0 mi South 9.2 mph 17.3 mph N/A   Mostly Cloudy
1:46 PM 64.4 °F - 26.6 °F 24% 29.89 in 10.0 mi South 11.5 mph 18.4 mph N/A   Mostly Cloudy
2:49 PM 66.2 °F - 28.4 °F 24% 29.84 in 10.0 mi SSW 16.1 mph 21.9 mph N/A   Mostly Cloudy
3:45 PM 66.2 °F - 28.4 °F 24% 29.82 in 10.0 mi South 11.5 mph 20.7 mph N/A   Scattered Clouds
4:46 PM 66.2 °F - 30.2 °F 26% 29.81 in 10.0 mi SSW 13.8 mph 19.6 mph N/A   Partly Cloudy
5:45 PM 64.4 °F - 32.0 °F 30% 29.82 in 10.0 mi SW 10.4 mph - N/A   Partly Cloudy
6:49 PM 59.0 °F - 32.0 °F 36% 29.85 in 10.0 mi SSW 3.5 mph - N/A   Clear
7:47 PM 59.0 °F - 33.8 °F 39% 29.87 in 10.0 mi WSW 4.6 mph - N/A   Clear
8:55 PM 57.2 °F - 33.8 °F 41% 29.88 in 10.0 mi WSW 5.8 mph - N/A   Clear
9:15 PM 57.2 °F - 33.8 °F 41% 29.89 in 10.0 mi West 4.6 mph - N/A   Mostly Cloudy
9:35 PM 57.2 °F - 33.8 °F 41% 29.90 in 10.0 mi WSW 5.8 mph - N/A   Mostly Cloudy
9:55 PM 57.2 °F - 33.8 °F 41% 29.90 in 10.0 mi WSW 6.9 mph - N/A   Scattered Clouds
10:15 PM 57.2 °F - 33.8 °F 41% 29.90 in 10.0 mi WSW 6.9 mph - N/A   Clear
10:35 PM 57.2 °F - 33.8 °F 41% 29.91 in 10.0 mi WSW 5.8 mph - N/A   Clear
10:55 PM 57.2 °F - 33.8 °F 41% 29.91 in 10.0 mi West 5.8 mph - N/A   Clear
11:35 PM 55.4 °F - 33.8 °F 44% 29.91 in 10.0 mi WSW 6.9 mph - N/A   Clear
11:55 PM 55.4 °F - 35.6 °F 47% 29.91 in 10.0 mi WSW 4.6 mph - N/A   Clear